Zurück zum Katalog

ARIANE 44LP R/B

AktivHEO
NORAD 26096·ROCKET BODY·🇫🇷 France

Gestartet Feb 18, 2000 von Guiana Space Centre

Loading…

Nächste Überflüge (nächste 24 Stunden)

TLE

AktuellSource: Space-Track

Epoche: Sep 14, 2026, 15:41 UTC

1 26096U 00012B   26257.65398232  .00000452  00000-0  61609-3 0  9992
2 26096   5.3218 348.3534 6948321  77.7337 346.4834  2.66657529235731

Verfolge ARIANE 44LP R/B in Echtzeit mit AllMySat

Download on the App Store